Year,Month,Day,Hour,Minute,Value (Times are PST for windgust in km/hr)
2015,03,13,00,01,1.60
2015,03,13,00,05,1.60
2015,03,13,00,06,3.20
2015,03,13,00,07,3.20
2015,03,13,00,08,3.20
2015,03,13,00,09,3.20
2015,03,13,00,10,1.60
2015,03,13,00,11,1.60
2015,03,13,00,12,1.60
2015,03,13,00,13,1.60
2015,03,13,00,14,1.60
2015,03,13,00,15,1.60
2015,03,13,00,16,1.60
2015,03,13,00,17,3.20
2015,03,13,00,18,3.20
2015,03,13,00,19,3.20
2015,03,13,00,20,3.20
2015,03,13,00,21,3.20
2015,03,13,00,22,1.60
2015,03,13,00,23,1.60
2015,03,13,00,27,1.60
2015,03,13,00,32,1.60
2015,03,13,00,37,1.60
2015,03,13,00,47,1.60
2015,03,13,00,48,1.60
2015,03,13,00,49,3.20
2015,03,13,00,50,1.60
2015,03,13,00,51,1.60
2015,03,13,00,52,3.20
2015,03,13,00,53,1.60
2015,03,13,00,54,3.20
2015,03,13,00,55,3.20
2015,03,13,00,56,1.60
2015,03,13,00,57,3.20
2015,03,13,00,58,3.20
2015,03,13,00,59,3.20
2015,03,13,01,00,3.20
2015,03,13,01,01,1.60
2015,03,13,01,02,1.60
2015,03,13,01,03,3.20
2015,03,13,01,04,3.20
2015,03,13,01,05,3.20
2015,03,13,01,06,1.60
2015,03,13,01,07,1.60
2015,03,13,01,08,3.20
2015,03,13,01,09,1.60
2015,03,13,01,10,1.60
2015,03,13,01,11,1.60
2015,03,13,01,12,1.60
2015,03,13,01,13,3.20
2015,03,13,01,14,1.60
2015,03,13,01,15,3.20
2015,03,13,01,16,3.20
2015,03,13,01,17,1.60
2015,03,13,01,18,1.60
2015,03,13,01,20,1.60
2015,03,13,01,22,1.60
2015,03,13,01,26,1.60
2015,03,13,01,27,1.60
2015,03,13,01,28,1.60
2015,03,13,01,30,1.60
2015,03,13,01,31,1.60
2015,03,13,01,32,4.80
2015,03,13,01,33,3.20
2015,03,13,01,34,3.20
2015,03,13,01,39,1.60
2015,03,13,01,40,4.80
2015,03,13,01,41,3.20
2015,03,13,01,42,3.20
2015,03,13,01,43,3.20
2015,03,13,01,44,3.20
2015,03,13,02,15,4.80
2015,03,13,02,16,4.80
2015,03,13,02,17,4.80
2015,03,13,02,18,3.20
2015,03,13,02,19,1.60
2015,03,13,02,20,3.20
2015,03,13,02,21,3.20
2015,03,13,02,22,1.60
2015,03,13,02,23,1.60
2015,03,13,02,24,3.20
2015,03,13,02,25,3.20
2015,03,13,02,26,3.20
2015,03,13,02,27,3.20
2015,03,13,02,28,3.20
2015,03,13,02,29,3.20
2015,03,13,02,30,4.80
2015,03,13,02,31,3.20
2015,03,13,02,32,3.20
2015,03,13,02,33,1.60
2015,03,13,02,34,1.60
2015,03,13,02,35,1.60
2015,03,13,02,37,1.60
2015,03,13,02,38,3.20
2015,03,13,02,41,1.60
2015,03,13,02,43,1.60
2015,03,13,02,56,1.60
2015,03,13,02,57,1.60
2015,03,13,02,58,1.60
2015,03,13,02,59,1.60
2015,03,13,03,01,1.60
2015,03,13,03,03,1.60
2015,03,13,03,04,3.20
2015,03,13,03,05,3.20
2015,03,13,03,06,1.60
2015,03,13,03,09,3.20
2015,03,13,03,10,1.60
2015,03,13,03,16,1.60
2015,03,13,03,17,3.20
2015,03,13,03,18,1.60
2015,03,13,03,21,1.60
2015,03,13,03,22,1.60
2015,03,13,03,23,3.20
2015,03,13,03,24,1.60
2015,03,13,03,25,1.60
2015,03,13,03,26,3.20
2015,03,13,03,27,3.20
2015,03,13,03,28,3.20
2015,03,13,03,29,3.20
2015,03,13,03,30,4.80
2015,03,13,03,31,1.60
2015,03,13,03,33,1.60
2015,03,13,03,34,1.60
2015,03,13,03,36,1.60
2015,03,13,03,37,1.60
2015,03,13,03,38,1.60
2015,03,13,03,40,1.60
2015,03,13,03,41,1.60
2015,03,13,03,42,1.60
2015,03,13,03,43,1.60
2015,03,13,03,44,3.20
2015,03,13,03,45,3.20
2015,03,13,03,47,1.60
2015,03,13,03,48,1.60
2015,03,13,03,49,1.60
2015,03,13,03,50,1.60
2015,03,13,03,51,1.60
2015,03,13,03,52,3.20
2015,03,13,03,53,3.20
2015,03,13,03,54,3.20
2015,03,13,03,55,1.60
2015,03,13,04,05,1.60
2015,03,13,04,06,1.60
2015,03,13,04,07,1.60
2015,03,13,04,20,1.60
2015,03,13,04,21,1.60
2015,03,13,04,22,1.60
2015,03,13,04,23,3.20
2015,03,13,04,24,3.20
2015,03,13,04,25,3.20
2015,03,13,04,26,3.20
2015,03,13,04,27,3.20
2015,03,13,04,28,3.20
2015,03,13,04,29,3.20
2015,03,13,04,30,1.60
2015,03,13,04,31,1.60
2015,03,13,04,32,3.20
2015,03,13,04,33,1.60
2015,03,13,04,34,3.20
2015,03,13,04,35,3.20
2015,03,13,04,36,3.20
2015,03,13,04,37,1.60
2015,03,13,04,38,3.20
2015,03,13,04,39,1.60
2015,03,13,04,40,1.60
2015,03,13,04,41,1.60
2015,03,13,04,42,1.60
2015,03,13,04,47,1.60
2015,03,13,04,55,1.60
2015,03,13,05,13,1.60
2015,03,13,05,14,1.60
2015,03,13,05,16,1.60
2015,03,13,05,17,1.60
2015,03,13,05,18,1.60
2015,03,13,05,20,1.60
2015,03,13,05,22,1.60
2015,03,13,05,32,1.60
2015,03,13,05,33,1.60
2015,03,13,05,34,1.60
2015,03,13,05,35,1.60
2015,03,13,06,00,1.60
2015,03,13,06,01,1.60
2015,03,13,06,02,1.60
2015,03,13,06,05,1.60
2015,03,13,06,18,1.60
2015,03,13,06,25,3.20
2015,03,13,06,26,3.20
2015,03,13,06,27,1.60
2015,03,13,06,30,1.60
2015,03,13,06,31,1.60
2015,03,13,06,34,3.20
2015,03,13,06,35,3.20
2015,03,13,06,36,1.60
2015,03,13,06,37,1.60
2015,03,13,06,47,1.60
2015,03,13,06,49,1.60
2015,03,13,06,50,3.20
2015,03,13,06,51,1.60
2015,03,13,06,52,1.60
2015,03,13,06,53,1.60
2015,03,13,06,54,1.60
2015,03,13,06,55,1.60
2015,03,13,06,57,1.60
2015,03,13,07,10,1.60
2015,03,13,07,13,1.60
2015,03,13,07,15,1.60
2015,03,13,07,16,3.20
2015,03,13,07,17,4.80
2015,03,13,07,18,4.80
2015,03,13,07,19,1.60
2015,03,13,07,20,1.60
2015,03,13,07,21,1.60
2015,03,13,07,22,3.20
2015,03,13,07,23,3.20
2015,03,13,07,24,3.20
2015,03,13,07,25,3.20
2015,03,13,07,29,1.60
2015,03,13,07,30,1.60
2015,03,13,07,31,1.60
2015,03,13,07,32,1.60
2015,03,13,07,33,1.60
2015,03,13,07,34,1.60
2015,03,13,07,35,1.60
2015,03,13,07,37,1.60
2015,03,13,07,38,1.60
2015,03,13,07,39,3.20
2015,03,13,07,49,1.60
2015,03,13,07,50,1.60
2015,03,13,07,55,1.60
2015,03,13,07,56,1.60
2015,03,13,07,57,1.60
2015,03,13,07,59,1.60
2015,03,13,08,00,1.60
2015,03,13,08,01,1.60
2015,03,13,08,03,1.60
2015,03,13,08,15,1.60
2015,03,13,08,16,1.60
2015,03,13,08,17,1.60
2015,03,13,08,18,1.60
2015,03,13,08,24,1.60
2015,03,13,08,25,1.60
2015,03,13,08,29,1.60
2015,03,13,08,35,1.60
2015,03,13,08,39,1.60
2015,03,13,08,40,1.60
2015,03,13,08,41,1.60
2015,03,13,08,42,1.60
2015,03,13,08,43,3.20
2015,03,13,08,44,3.20
2015,03,13,08,45,1.60
2015,03,13,08,46,3.20
2015,03,13,08,47,4.80
2015,03,13,08,48,3.20
2015,03,13,08,49,3.20
2015,03,13,08,50,1.60
2015,03,13,08,51,1.60
2015,03,13,08,52,4.80
2015,03,13,08,53,4.80
2015,03,13,08,54,3.20
2015,03,13,08,55,1.60
2015,03,13,08,57,1.60
2015,03,13,09,00,1.60
2015,03,13,09,01,1.60
2015,03,13,09,02,1.60
2015,03,13,09,04,1.60
2015,03,13,09,06,1.60
2015,03,13,09,22,1.60
2015,03,13,09,23,3.20
2015,03,13,09,24,4.80
2015,03,13,09,25,3.20
2015,03,13,09,26,4.80
2015,03,13,09,27,4.80
2015,03,13,09,28,4.80
2015,03,13,09,29,4.80
2015,03,13,09,30,4.80
2015,03,13,09,31,4.80
2015,03,13,09,32,4.80
2015,03,13,09,33,3.20
2015,03,13,09,34,3.20
2015,03,13,09,35,3.20
2015,03,13,09,36,3.20
2015,03,13,09,37,3.20
2015,03,13,09,38,1.60
2015,03,13,09,39,1.60
2015,03,13,09,40,3.20
2015,03,13,09,41,3.20
2015,03,13,09,42,1.60
2015,03,13,09,43,4.80
2015,03,13,09,44,3.20
2015,03,13,09,45,4.80
2015,03,13,09,46,3.20
2015,03,13,09,47,3.20
2015,03,13,09,48,3.20
2015,03,13,09,49,4.80
2015,03,13,09,50,8.10
2015,03,13,09,51,8.10
2015,03,13,09,52,9.60
2015,03,13,09,53,8.10
2015,03,13,09,54,8.10
2015,03,13,09,55,6.40
2015,03,13,09,56,4.80
2015,03,13,09,57,4.80
2015,03,13,09,58,4.80
2015,03,13,09,59,6.40
2015,03,13,10,00,6.40
2015,03,13,10,01,4.80
2015,03,13,10,02,6.40
2015,03,13,10,03,6.40
2015,03,13,10,04,4.80
2015,03,13,10,05,4.80
2015,03,13,10,06,3.20
2015,03,13,10,07,6.40
2015,03,13,10,08,6.40
2015,03,13,10,09,6.40
2015,03,13,10,10,6.40
2015,03,13,10,11,4.80
2015,03,13,10,12,6.40
2015,03,13,10,13,6.40
2015,03,13,10,14,9.60
2015,03,13,10,15,4.80
2015,03,13,10,16,6.40
2015,03,13,10,17,11.30
2015,03,13,10,18,6.40
2015,03,13,10,19,6.40
2015,03,13,10,20,8.10
2015,03,13,10,21,4.80
2015,03,13,10,22,8.10
2015,03,13,10,23,8.10
2015,03,13,10,24,3.20
2015,03,13,10,25,6.40
2015,03,13,10,26,6.40
2015,03,13,10,27,6.40
2015,03,13,10,28,6.40
2015,03,13,10,29,3.20
2015,03,13,10,30,4.80
2015,03,13,10,31,4.80
2015,03,13,10,32,8.10
2015,03,13,10,33,9.60
2015,03,13,10,34,6.40
2015,03,13,10,35,8.10
2015,03,13,10,36,6.40
2015,03,13,10,37,9.60
2015,03,13,10,38,8.10
2015,03,13,10,39,9.60
2015,03,13,10,40,8.10
2015,03,13,10,41,6.40
2015,03,13,10,42,8.10
2015,03,13,10,43,6.40
2015,03,13,10,44,9.60
2015,03,13,10,45,11.30
2015,03,13,10,46,11.30
2015,03,13,10,47,11.30
2015,03,13,10,48,9.60
2015,03,13,10,49,9.60
2015,03,13,10,50,9.60
2015,03,13,10,51,9.60
2015,03,13,10,52,8.10
2015,03,13,10,53,9.60
2015,03,13,10,54,8.10
2015,03,13,10,55,6.40
2015,03,13,10,56,4.80
2015,03,13,10,57,8.10
2015,03,13,10,58,4.80
2015,03,13,10,59,8.10
2015,03,13,11,00,9.60
2015,03,13,11,01,8.10
2015,03,13,11,02,6.40
2015,03,13,11,03,6.40
2015,03,13,11,04,8.10
2015,03,13,11,05,9.60
2015,03,13,11,06,8.10
2015,03,13,11,07,9.60
2015,03,13,11,08,8.10
2015,03,13,11,09,11.30
2015,03,13,11,10,8.10
2015,03,13,11,11,9.60
2015,03,13,11,12,9.60
2015,03,13,11,13,6.40
2015,03,13,11,14,11.30
2015,03,13,11,15,9.60
2015,03,13,11,16,9.60
2015,03,13,11,17,8.10
2015,03,13,11,18,6.40
2015,03,13,11,19,4.80
2015,03,13,11,20,6.40
2015,03,13,11,21,6.40
2015,03,13,11,22,6.40
2015,03,13,11,23,4.80
2015,03,13,11,24,4.80
2015,03,13,11,25,6.40
2015,03,13,11,26,6.40
2015,03,13,11,27,4.80
2015,03,13,11,28,6.40
2015,03,13,11,29,3.20
2015,03,13,11,30,4.80
2015,03,13,11,31,4.80
2015,03,13,11,32,6.40
2015,03,13,11,33,4.80
2015,03,13,11,34,6.40
2015,03,13,11,35,6.40
2015,03,13,11,36,6.40
2015,03,13,11,37,4.80
2015,03,13,11,38,6.40
2015,03,13,11,39,6.40
2015,03,13,11,40,6.40
2015,03,13,11,41,8.10
2015,03,13,11,42,8.10
2015,03,13,11,43,4.80
2015,03,13,11,44,3.20
2015,03,13,11,45,6.40
2015,03,13,11,46,3.20
2015,03,13,11,47,8.10
2015,03,13,11,48,4.80
2015,03,13,11,49,6.40
2015,03,13,11,50,6.40
2015,03,13,11,51,6.40
2015,03,13,11,52,6.40
2015,03,13,11,53,8.10
2015,03,13,11,54,4.80
2015,03,13,11,55,6.40
2015,03,13,11,56,6.40
2015,03,13,11,57,6.40
2015,03,13,11,58,8.10
2015,03,13,11,59,8.10
2015,03,13,12,00,8.10
2015,03,13,12,01,6.40
2015,03,13,12,02,8.10
2015,03,13,12,03,6.40
2015,03,13,12,04,6.40
2015,03,13,12,05,4.80
2015,03,13,12,06,6.40
2015,03,13,12,07,6.40
2015,03,13,12,08,4.80
2015,03,13,12,09,3.20
2015,03,13,12,10,3.20
2015,03,13,12,11,4.80
2015,03,13,12,12,4.80
2015,03,13,12,13,4.80
2015,03,13,12,14,6.40
2015,03,13,12,15,8.10
2015,03,13,12,16,9.60
2015,03,13,12,17,9.60
2015,03,13,12,18,6.40
2015,03,13,12,19,9.60
2015,03,13,12,20,6.40
2015,03,13,12,21,9.60
2015,03,13,12,22,11.30
2015,03,13,12,23,9.60
2015,03,13,12,24,9.60
2015,03,13,12,25,9.60
2015,03,13,12,26,8.10
2015,03,13,12,27,6.40
2015,03,13,12,28,9.60
2015,03,13,12,29,8.10
2015,03,13,12,30,6.40
2015,03,13,12,31,9.60
2015,03,13,12,32,9.60
2015,03,13,12,33,8.10
2015,03,13,12,34,9.60
2015,03,13,12,35,8.10
2015,03,13,12,36,4.80
2015,03,13,12,37,9.60
2015,03,13,12,38,8.10
2015,03,13,12,39,9.60
2015,03,13,12,40,9.60
2015,03,13,12,41,11.30
2015,03,13,12,42,11.30
2015,03,13,12,43,9.60
2015,03,13,12,44,8.10
2015,03,13,12,45,8.10
2015,03,13,12,46,9.60
2015,03,13,12,47,6.40
2015,03,13,12,48,6.40
2015,03,13,12,49,8.10
2015,03,13,12,50,8.10
2015,03,13,12,51,8.10
2015,03,13,12,52,8.10
2015,03,13,12,54,3.20
2015,03,13,12,55,9.60
2015,03,13,12,56,8.10
2015,03,13,12,57,8.10
2015,03,13,12,58,11.30
2015,03,13,12,59,8.10
2015,03,13,13,00,3.20
2015,03,13,13,01,6.40
2015,03,13,13,02,6.40
2015,03,13,13,03,11.30
2015,03,13,13,04,14.50
2015,03,13,13,05,11.30
2015,03,13,13,06,9.60
2015,03,13,13,07,9.60
2015,03,13,13,08,9.60
2015,03,13,13,09,8.10
2015,03,13,13,10,4.80
2015,03,13,13,11,8.10
2015,03,13,13,12,8.10
2015,03,13,13,13,3.20
2015,03,13,13,14,6.40
2015,03,13,13,15,6.40
2015,03,13,13,16,4.80
2015,03,13,13,17,6.40
2015,03,13,13,18,6.40
2015,03,13,13,19,9.60
2015,03,13,13,20,9.60
2015,03,13,13,21,9.60
2015,03,13,13,22,9.60
2015,03,13,13,23,9.60
2015,03,13,13,24,9.60
2015,03,13,13,25,8.10
2015,03,13,13,26,9.60
2015,03,13,13,27,8.10
2015,03,13,13,28,11.30
2015,03,13,13,29,9.60
2015,03,13,13,30,8.10
2015,03,13,13,31,9.60
2015,03,13,13,32,9.60
2015,03,13,13,33,8.10
2015,03,13,13,34,9.60
2015,03,13,13,35,8.10
2015,03,13,13,36,11.30
2015,03,13,13,37,9.60
2015,03,13,13,38,8.10
2015,03,13,13,39,9.60
2015,03,13,13,40,8.10
2015,03,13,13,41,6.40
2015,03,13,13,42,6.40
2015,03,13,13,43,6.40
2015,03,13,13,44,8.10
2015,03,13,13,45,6.40
2015,03,13,13,46,6.40
2015,03,13,13,47,9.60
2015,03,13,13,48,8.10
2015,03,13,13,49,6.40
2015,03,13,13,50,4.80
2015,03,13,13,51,6.40
2015,03,13,13,52,11.30
2015,03,13,13,53,8.10
2015,03,13,13,54,9.60
2015,03,13,13,55,9.60
2015,03,13,13,56,8.10
2015,03,13,13,57,6.40
2015,03,13,13,58,8.10
2015,03,13,13,59,8.10
2015,03,13,14,00,6.40
2015,03,13,14,01,9.60
2015,03,13,14,02,6.40
2015,03,13,14,03,8.10
2015,03,13,14,04,9.60
2015,03,13,14,05,11.30
2015,03,13,14,06,9.60
2015,03,13,14,07,12.90
2015,03,13,14,08,9.60
2015,03,13,14,09,9.60
2015,03,13,14,10,9.60
2015,03,13,14,11,11.30
2015,03,13,14,12,8.10
2015,03,13,14,13,6.40
2015,03,13,14,14,4.80
2015,03,13,14,15,6.40
2015,03,13,14,16,6.40
2015,03,13,14,17,6.40
2015,03,13,14,18,4.80
2015,03,13,14,19,6.40
2015,03,13,14,20,6.40
2015,03,13,14,21,6.40
2015,03,13,14,22,4.80
2015,03,13,14,23,3.20
2015,03,13,14,24,1.60
2015,03,13,14,25,4.80
2015,03,13,14,26,4.80
2015,03,13,14,27,4.80
2015,03,13,14,28,6.40
2015,03,13,14,29,3.20
2015,03,13,14,30,4.80
2015,03,13,14,31,4.80
2015,03,13,14,32,3.20
2015,03,13,14,33,4.80
2015,03,13,14,34,6.40
2015,03,13,14,35,6.40
2015,03,13,14,36,4.80
2015,03,13,14,37,6.40
2015,03,13,14,38,4.80
2015,03,13,14,39,4.80
2015,03,13,14,40,4.80
2015,03,13,14,41,6.40
2015,03,13,14,42,4.80
2015,03,13,14,43,3.20
2015,03,13,14,44,3.20
2015,03,13,14,45,6.40
2015,03,13,14,46,6.40
2015,03,13,14,47,6.40
2015,03,13,14,48,4.80
2015,03,13,14,49,6.40
2015,03,13,14,50,6.40
2015,03,13,14,51,4.80
2015,03,13,14,52,6.40
2015,03,13,14,53,6.40
2015,03,13,14,54,4.80
2015,03,13,14,55,4.80
2015,03,13,14,56,4.80
2015,03,13,14,57,3.20
2015,03,13,14,58,4.80
2015,03,13,14,59,3.20
2015,03,13,15,00,3.20
2015,03,13,15,01,4.80
2015,03,13,15,02,6.40
2015,03,13,15,03,3.20
2015,03,13,15,04,6.40
2015,03,13,15,05,4.80
2015,03,13,15,06,6.40
2015,03,13,15,07,4.80
2015,03,13,15,08,4.80
2015,03,13,15,09,3.20
2015,03,13,15,10,3.20
2015,03,13,15,11,3.20
2015,03,13,15,12,4.80
2015,03,13,15,13,6.40
2015,03,13,15,14,8.10
2015,03,13,15,15,4.80
2015,03,13,15,16,4.80
2015,03,13,15,17,8.10
2015,03,13,15,18,8.10
2015,03,13,15,19,8.10
2015,03,13,15,20,4.80
2015,03,13,15,21,8.10
2015,03,13,15,22,8.10
2015,03,13,15,23,9.60
2015,03,13,15,24,8.10
2015,03,13,15,25,9.60
2015,03,13,15,26,6.40
2015,03,13,15,27,4.80
2015,03,13,15,28,8.10
2015,03,13,15,29,8.10
2015,03,13,15,30,9.60
2015,03,13,15,31,6.40
2015,03,13,15,32,3.20
2015,03,13,15,33,8.10
2015,03,13,15,34,6.40
2015,03,13,15,35,4.80
2015,03,13,15,36,4.80
2015,03,13,15,37,1.60
2015,03,13,15,38,8.10
2015,03,13,15,39,9.60
2015,03,13,15,40,6.40
2015,03,13,15,41,8.10
2015,03,13,15,42,8.10
2015,03,13,15,43,6.40
2015,03,13,15,44,6.40
2015,03,13,15,45,6.40
2015,03,13,15,46,1.60
2015,03,13,15,47,4.80
2015,03,13,15,48,3.20
2015,03,13,15,49,3.20
2015,03,13,15,50,4.80
2015,03,13,15,51,4.80
2015,03,13,15,52,6.40
2015,03,13,15,53,6.40
2015,03,13,15,54,3.20
2015,03,13,15,55,3.20
2015,03,13,15,56,3.20
2015,03,13,15,57,3.20
2015,03,13,15,58,6.40
2015,03,13,15,59,6.40
2015,03,13,16,00,4.80
2015,03,13,16,01,6.40
2015,03,13,16,02,8.10
2015,03,13,16,03,4.80
2015,03,13,16,04,6.40
2015,03,13,16,05,6.40
2015,03,13,16,06,3.20
2015,03,13,16,07,1.60
2015,03,13,16,08,4.80
2015,03,13,16,09,4.80
2015,03,13,16,10,4.80
2015,03,13,16,11,4.80
2015,03,13,16,12,6.40
2015,03,13,16,13,4.80
2015,03,13,16,14,1.60
2015,03,13,16,15,3.20
2015,03,13,16,16,3.20
2015,03,13,16,17,3.20
2015,03,13,16,18,3.20
2015,03,13,16,19,3.20
2015,03,13,16,20,1.60
2015,03,13,16,21,3.20
2015,03,13,16,22,3.20
2015,03,13,16,23,4.80
2015,03,13,16,24,6.40
2015,03,13,16,25,3.20
2015,03,13,16,26,4.80
2015,03,13,16,27,4.80
2015,03,13,16,28,4.80
2015,03,13,16,29,6.40
2015,03,13,16,30,3.20
2015,03,13,16,31,3.20
2015,03,13,16,32,4.80
2015,03,13,16,33,6.40
2015,03,13,16,34,6.40
2015,03,13,16,35,4.80
2015,03,13,16,36,3.20
2015,03,13,16,37,1.60
2015,03,13,16,38,3.20
2015,03,13,16,39,1.60
2015,03,13,16,40,3.20
2015,03,13,16,42,1.60
2015,03,13,16,43,1.60
2015,03,13,16,44,3.20
2015,03,13,16,45,1.60
2015,03,13,16,46,1.60
2015,03,13,16,47,1.60
2015,03,13,16,48,1.60
2015,03,13,16,49,4.80
2015,03,13,16,50,1.60
2015,03,13,16,51,3.20
2015,03,13,16,53,1.60
2015,03,13,16,54,1.60
2015,03,13,16,55,1.60
2015,03,13,16,56,1.60
2015,03,13,17,01,1.60
2015,03,13,17,02,4.80
2015,03,13,17,03,3.20
2015,03,13,17,04,3.20
2015,03,13,17,05,3.20
2015,03,13,17,07,1.60
2015,03,13,17,08,3.20
2015,03,13,17,09,4.80
2015,03,13,17,10,3.20
2015,03,13,17,11,1.60
2015,03,13,17,20,3.20
2015,03,13,17,21,4.80
2015,03,13,17,22,3.20
2015,03,13,17,23,3.20
2015,03,13,17,24,4.80
2015,03,13,17,25,4.80
2015,03,13,17,26,4.80
2015,03,13,17,27,4.80
2015,03,13,17,28,6.40
2015,03,13,17,29,3.20
2015,03,13,17,30,3.20
2015,03,13,17,31,3.20
2015,03,13,17,32,3.20
2015,03,13,17,33,4.80
2015,03,13,17,34,3.20
2015,03,13,17,35,4.80
2015,03,13,17,36,4.80
2015,03,13,17,37,3.20
2015,03,13,17,38,4.80
2015,03,13,17,39,3.20
2015,03,13,17,40,1.60
2015,03,13,17,41,1.60
2015,03,13,17,42,3.20
2015,03,13,17,43,1.60
2015,03,13,17,44,1.60
2015,03,13,17,45,3.20
2015,03,13,17,46,1.60
2015,03,13,17,47,1.60
2015,03,13,17,48,1.60
2015,03,13,17,49,1.60
2015,03,13,17,50,4.80
2015,03,13,17,51,3.20
2015,03,13,17,52,3.20
2015,03,13,17,53,3.20
2015,03,13,17,54,3.20
2015,03,13,17,55,3.20
2015,03,13,17,56,3.20
2015,03,13,17,57,3.20
2015,03,13,17,58,1.60
2015,03,13,17,59,3.20
2015,03,13,18,00,1.60
2015,03,13,18,01,1.60
2015,03,13,18,02,3.20
2015,03,13,18,03,3.20
2015,03,13,18,04,3.20
2015,03,13,19,15,3.20
2015,03,13,19,16,3.20
2015,03,13,19,17,3.20
2015,03,13,19,18,1.60
2015,03,13,19,19,1.60
2015,03,13,19,30,1.60
2015,03,13,19,34,1.60
2015,03,13,19,35,3.20
2015,03,13,19,36,3.20
2015,03,13,19,37,3.20
2015,03,13,19,38,3.20
2015,03,13,19,39,4.80
2015,03,13,19,40,4.80
2015,03,13,19,41,3.20
2015,03,13,19,42,4.80
2015,03,13,19,43,3.20
2015,03,13,19,44,3.20
2015,03,13,19,45,1.60
2015,03,13,19,46,3.20
2015,03,13,19,48,1.60
2015,03,13,19,49,3.20
2015,03,13,19,50,3.20
2015,03,13,19,51,1.60
2015,03,13,19,52,1.60
2015,03,13,19,57,1.60
2015,03,13,19,58,3.20
2015,03,13,20,55,1.60
2015,03,13,21,02,1.60
2015,03,13,21,18,1.60
2015,03,13,21,19,1.60
2015,03,13,21,22,1.60
2015,03,13,21,23,1.60
2015,03,13,21,30,1.60
2015,03,13,21,31,1.60
2015,03,13,21,33,1.60
2015,03,13,21,35,1.60
2015,03,13,21,56,1.60
2015,03,13,21,58,1.60
2015,03,13,21,59,3.20
2015,03,13,22,00,1.60
2015,03,13,22,04,1.60
2015,03,13,22,05,1.60
2015,03,13,22,06,1.60
2015,03,13,22,07,4.80
2015,03,13,22,08,3.20
2015,03,13,22,09,4.80
2015,03,13,22,10,4.80
2015,03,13,22,11,4.80
2015,03,13,22,12,6.40
2015,03,13,22,13,3.20
2015,03,13,22,14,4.80
2015,03,13,22,15,6.40
2015,03,13,22,16,9.60
2015,03,13,22,17,8.10
2015,03,13,22,18,9.60
2015,03,13,22,19,4.80
2015,03,13,22,20,8.10
2015,03,13,22,21,6.40
2015,03,13,22,22,6.40
2015,03,13,22,23,8.10
2015,03,13,22,24,9.60
2015,03,13,22,25,8.10
2015,03,13,22,26,6.40
2015,03,13,22,27,6.40
2015,03,13,22,28,4.80
2015,03,13,22,29,6.40
2015,03,13,22,30,6.40
2015,03,13,22,31,6.40
2015,03,13,22,32,4.80
2015,03,13,22,33,4.80
2015,03,13,22,34,6.40
2015,03,13,22,35,4.80
2015,03,13,22,36,1.60
2015,03,13,22,37,1.60
2015,03,13,22,38,1.60
2015,03,13,22,39,1.60
2015,03,13,22,40,1.60
2015,03,13,22,41,4.80
2015,03,13,22,42,1.60
2015,03,13,22,43,1.60
2015,03,13,22,44,1.60
2015,03,13,22,45,1.60
2015,03,13,22,46,3.20
2015,03,13,22,47,1.60
2015,03,13,22,48,3.20
2015,03,13,22,49,4.80
2015,03,13,22,50,6.40
2015,03,13,22,51,8.10
2015,03,13,22,52,6.40
2015,03,13,22,53,8.10
2015,03,13,22,54,8.10
2015,03,13,22,55,4.80
2015,03,13,22,56,6.40
2015,03,13,22,57,4.80
2015,03,13,22,58,4.80
2015,03,13,22,59,6.40
2015,03,13,23,00,11.30
2015,03,13,23,01,9.60
2015,03,13,23,02,8.10
2015,03,13,23,03,6.40
2015,03,13,23,04,6.40
2015,03,13,23,05,11.30
2015,03,13,23,06,6.40
2015,03,13,23,07,8.10
2015,03,13,23,08,9.60
2015,03,13,23,09,9.60
2015,03,13,23,10,9.60
2015,03,13,23,11,11.30
2015,03,13,23,12,11.30
2015,03,13,23,13,11.30
2015,03,13,23,14,9.60
2015,03,13,23,15,6.40
2015,03,13,23,16,9.60
2015,03,13,23,17,9.60
2015,03,13,23,18,6.40
2015,03,13,23,19,8.10
2015,03,13,23,20,9.60
2015,03,13,23,21,6.40
2015,03,13,23,22,6.40
2015,03,13,23,23,8.10
2015,03,13,23,24,4.80
2015,03,13,23,25,6.40
2015,03,13,23,26,9.60
2015,03,13,23,27,9.60
2015,03,13,23,28,6.40
2015,03,13,23,29,9.60
2015,03,13,23,30,11.30
2015,03,13,23,31,9.60
2015,03,13,23,32,11.30
2015,03,13,23,33,16.10
2015,03,13,23,34,16.10
2015,03,13,23,35,6.40
2015,03,13,23,36,11.30
2015,03,13,23,37,14.50
2015,03,13,23,38,14.50
2015,03,13,23,39,9.60
2015,03,13,23,40,8.10
2015,03,13,23,41,11.30
2015,03,13,23,42,9.60
2015,03,13,23,43,11.30
2015,03,13,23,44,12.90
2015,03,13,23,45,14.50
2015,03,13,23,46,11.30
2015,03,13,23,47,9.60
2015,03,13,23,48,16.10
2015,03,13,23,49,11.30
2015,03,13,23,50,11.30
2015,03,13,23,51,9.60
2015,03,13,23,52,11.30
2015,03,13,23,53,9.60
2015,03,13,23,54,9.60
2015,03,13,23,55,9.60
2015,03,13,23,56,6.40
2015,03,13,23,57,14.50
2015,03,13,23,58,9.60
2015,03,13,23,59,9.60
